sat.trackr.live / text

‹ back to catalog

FLOCK 4G-33

NORAD 62685 · 2025-009CE

PAYLOAD ACTIVE UNKNOWN

§ Identity

Operator
Country
US
Launch date
2025-01-14
Launch site
AFWTR
Launch vehicle
Mass (kg)
RCS (m²)

Purposes: earth_obs

External: N2YO · Heavens-Above · Gunter

§ Orbital elements

Epoch: 2026-09-19T11:27:46.522656Z

Period
94.34 min
Inclination
97.3887°
Eccentricity
0.0005369
Mean motion
15.26446657 rev/d
Perigee alt
482.8 km
Apogee alt
490.1 km
Semi-major
6,864.6 km
B*
1.5234e-4
RAAN
341.3015°
Arg perigee
14.1515°
Mean anomaly
345.9873°
Rev number
9,318

§ Raw data

FLOCK 4G-331 62685U 25009CE  26262.47762179  .00003898  00000+0  15234-3 0  99992 62685  97.3887 341.3015 0005369  14.1515 345.9873 15.26446657 93184

JSON: /api/v1/satellites/62685 · /tle

For live sub-satellite position, see the globe view (requires WebGL).

§ Visibility from observer

Set your observer location to see the next 7 days of passes ≥ 10°. The values pass through the URL so the page stays shareable.

No JS? Fill the form by hand. The geolocation button needs JavaScript.